TimeEST,TemperatureF,Dew PointF,Humidity,Sea Level PressureIn,VisibilityMPH,Wind Direction,Wind SpeedMPH,Gust SpeedMPH,PrecipitationIn,Events,Conditions,WindDirDegrees,DateUTC
12:15 AM,24.8,3.2,40,30.13,10.0,WNW,13.8,26.5,N/A,,Partly Cloudy,300,2013-02-02 05:15:00
12:35 AM,24.8,5.0,43,30.13,10.0,WNW,13.8,21.9,N/A,,Scattered Clouds,290,2013-02-02 05:35:00
12:55 AM,24.8,5.0,43,30.13,10.0,West,15.0,24.2,N/A,,Mostly Cloudy,280,2013-02-02 05:55:00
1:15 AM,24.8,6.8,46,30.14,10.0,WNW,19.6,29.9,N/A,,Mostly Cloudy,290,2013-02-02 06:15:00
1:35 AM,24.8,3.2,40,30.15,10.0,WNW,12.7,26.5,N/A,,Scattered Clouds,300,2013-02-02 06:35:00
1:55 AM,24.8,5.0,43,30.16,10.0,WNW,15.0,25.3,N/A,,Mostly Cloudy,300,2013-02-02 06:55:00
2:35 AM,24.8,3.2,40,30.16,10.0,WNW,17.3,27.6,N/A,,Scattered Clouds,290,2013-02-02 07:35:00
2:55 AM,24.8,5.0,43,30.17,10.0,NW,15.0,23.0,N/A,,Mostly Cloudy,310,2013-02-02 07:55:00
3:15 AM,24.8,3.2,40,30.17,10.0,WNW,18.4,28.8,N/A,,Scattered Clouds,300,2013-02-02 08:15:00
3:35 AM,24.8,3.2,40,30.18,10.0,NW,13.8,28.8,N/A,,Partly Cloudy,310,2013-02-02 08:35:00
3:55 AM,24.8,5.0,43,30.18,10.0,WNW,11.5,20.7,N/A,,Partly Cloudy,300,2013-02-02 08:55:00
4:15 AM,24.8,6.8,46,30.19,10.0,WNW,10.4,18.4,N/A,,Mostly Cloudy,290,2013-02-02 09:15:00
4:55 AM,24.8,6.8,46,30.20,10.0,WNW,9.2,16.1,N/A,,Partly Cloudy,300,2013-02-02 09:55:00
5:15 AM,24.8,6.8,46,30.21,10.0,WNW,10.4,16.1,N/A,,Partly Cloudy,290,2013-02-02 10:15:00
5:35 AM,24.8,6.8,46,30.21,10.0,WNW,6.9,18.4,N/A,,Partly Cloudy,300,2013-02-02 10:35:00
5:55 AM,24.8,5.0,43,30.22,10.0,NW,10.4,19.6,N/A,,Partly Cloudy,310,2013-02-02 10:55:00
6:15 AM,23.0,6.8,50,30.22,10.0,WNW,8.1,18.4,N/A,,Partly Cloudy,300,2013-02-02 11:15:00
6:35 AM,23.0,6.8,50,30.22,10.0,NW,9.2,16.1,N/A,,Clear,310,2013-02-02 11:35:00
7:15 AM,23.0,6.8,50,30.24,10.0,WNW,11.5,17.3,N/A,,Partly Cloudy,300,2013-02-02 12:15:00
7:35 AM,24.8,6.8,46,30.25,10.0,WNW,10.4,-,N/A,,Partly Cloudy,290,2013-02-02 12:35:00
7:55 AM,24.8,8.6,50,30.25,10.0,WNW,6.9,-,N/A,,Partly Cloudy,290,2013-02-02 12:55:00
8:15 AM,26.6,8.6,47,30.25,10.0,WNW,8.1,-,N/A,,Partly Cloudy,300,2013-02-02 13:15:00
8:35 AM,26.6,8.6,47,30.25,10.0,WNW,8.1,-,N/A,,Scattered Clouds,290,2013-02-02 13:35:00
8:55 AM,26.6,6.8,43,30.26,10.0,WNW,11.5,16.1,N/A,,Partly Cloudy,290,2013-02-02 13:55:00
9:35 AM,28.4,10.4,47,30.26,10.0,West,11.5,16.1,N/A,,Scattered Clouds,270,2013-02-02 14:35:00
9:55 AM,28.4,10.4,47,30.26,10.0,West,11.5,-,N/A,,Scattered Clouds,270,2013-02-02 14:55:00
10:15 AM,26.6,10.4,51,30.26,10.0,West,6.9,-,N/A,,Mostly Cloudy,270,2013-02-02 15:15:00
10:35 AM,28.4,12.2,51,30.26,10.0,West,9.2,-,N/A,,Overcast,270,2013-02-02 15:35:00
10:55 AM,26.6,12.2,55,30.25,10.0,West,9.2,-,N/A,,Overcast,270,2013-02-02 15:55:00
11:15 AM,28.4,10.4,47,30.24,10.0,SW,11.5,-,N/A,,Overcast,230,2013-02-02 16:15:00
11:35 AM,28.4,10.4,47,30.23,10.0,SW,12.7,16.1,N/A,,Scattered Clouds,230,2013-02-02 16:35:00
12:15 PM,28.4,10.4,47,30.21,10.0,WSW,17.3,20.7,N/A,,Scattered Clouds,240,2013-02-02 17:15:00
12:35 PM,28.4,10.4,47,30.19,10.0,WSW,12.7,19.6,N/A,,Scattered Clouds,240,2013-02-02 17:35:00
12:55 PM,28.4,10.4,47,30.18,10.0,SW,13.8,18.4,N/A,,Scattered Clouds,220,2013-02-02 17:55:00
1:15 PM,28.4,10.4,47,30.17,10.0,WSW,16.1,21.9,N/A,,Scattered Clouds,250,2013-02-02 18:15:00
1:35 PM,30.2,10.4,44,30.16,10.0,WSW,16.1,20.7,N/A,,Clear,250,2013-02-02 18:35:00
1:55 PM,30.2,10.4,44,30.15,10.0,WSW,17.3,24.2,N/A,,Clear,240,2013-02-02 18:55:00
2:15 PM,30.2,12.2,47,30.14,10.0,SW,13.8,23.0,N/A,,Clear,220,2013-02-02 19:15:00
2:35 PM,30.2,12.2,47,30.14,10.0,SW,13.8,23.0,N/A,,Partly Cloudy,230,2013-02-02 19:35:00
2:55 PM,30.2,12.2,47,30.13,10.0,SW,17.3,21.9,N/A,,Scattered Clouds,230,2013-02-02 19:55:00
3:15 PM,30.2,14.0,51,30.13,10.0,WSW,13.8,23.0,N/A,,Mostly Cloudy,240,2013-02-02 20:15:00
3:35 PM,30.2,12.2,47,30.11,10.0,SW,18.4,27.6,N/A,,Mostly Cloudy,230,2013-02-02 20:35:00
3:55 PM,30.2,12.2,47,30.11,10.0,SW,18.4,24.2,N/A,,Mostly Cloudy,230,2013-02-02 20:55:00
4:15 PM,30.2,14.0,51,30.10,10.0,WSW,20.7,27.6,N/A,,Mostly Cloudy,240,2013-02-02 21:15:00
4:35 PM,30.2,14.0,51,30.10,10.0,SW,17.3,25.3,N/A,,Mostly Cloudy,230,2013-02-02 21:35:00
4:55 PM,30.2,15.8,55,30.10,10.0,WSW,17.3,25.3,N/A,,Mostly Cloudy,240,2013-02-02 21:55:00
5:15 PM,30.2,14.0,51,30.09,10.0,WSW,21.9,25.3,N/A,,Overcast,240,2013-02-02 22:15:00
5:35 PM,30.2,15.8,55,30.09,10.0,SW,18.4,25.3,N/A,,Overcast,230,2013-02-02 22:35:00
5:55 PM,30.2,15.8,55,30.09,10.0,WSW,19.6,26.5,N/A,,Mostly Cloudy,240,2013-02-02 22:55:00
6:15 PM,30.2,15.8,55,30.08,10.0,WSW,20.7,26.5,N/A,,Mostly Cloudy,240,2013-02-02 23:15:00
6:35 PM,30.2,15.8,55,30.08,10.0,SW,17.3,25.3,N/A,,Overcast,230,2013-02-02 23:35:00
6:55 PM,30.2,15.8,55,30.08,10.0,WSW,16.1,24.2,N/A,,Mostly Cloudy,240,2013-02-02 23:55:00
7:15 PM,30.2,17.6,60,30.07,10.0,WSW,20.7,27.6,N/A,,Overcast,240,2013-02-03 00:15:00
7:35 PM,30.2,19.4,64,30.07,10.0,SW,20.7,26.5,N/A,,Overcast,230,2013-02-03 00:35:00
7:55 PM,30.2,17.6,60,30.06,10.0,SW,20.7,25.3,N/A,,Overcast,230,2013-02-03 00:55:00
8:15 PM,30.2,17.6,60,30.06,10.0,SW,17.3,24.2,N/A,,Overcast,230,2013-02-03 01:15:00
8:35 PM,32.0,17.6,55,30.06,10.0,SW,17.3,23.0,N/A,,Overcast,230,2013-02-03 01:35:00
8:55 PM,32.0,17.6,55,30.05,10.0,WSW,17.3,24.2,N/A,,Overcast,240,2013-02-03 01:55:00
9:15 PM,30.2,19.4,64,30.05,10.0,WSW,17.3,27.6,N/A,,Overcast,240,2013-02-03 02:15:00
9:35 PM,30.2,23.0,75,30.05,3.0,WSW,17.3,21.9,N/A,,Overcast,240,2013-02-03 02:35:00
9:55 PM,30.2,21.2,69,30.05,6.0,West,12.7,21.9,N/A,,Overcast,260,2013-02-03 02:55:00
10:15 PM,28.4,23.0,80,30.05,3.0,West,11.5,18.4,N/A,,Overcast,260,2013-02-03 03:15:00
10:35 PM,28.4,21.2,74,30.05,2.5,West,12.7,20.7,N/A,,Overcast,270,2013-02-03 03:35:00
10:55 PM,28.4,23.0,80,30.05,2.0,West,15.0,19.6,N/A,,Overcast,270,2013-02-03 03:55:00
11:15 PM,28.4,21.2,74,30.05,3.0,West,12.7,20.7,N/A,,Overcast,280,2013-02-03 04:15:00
11:35 PM,28.4,23.0,80,30.05,2.0,West,9.2,19.6,N/A,,Overcast,280,2013-02-03 04:35:00
11:55 PM,28.4,21.2,74,30.05,2.5,West,12.7,19.6,N/A,,Overcast,280,2013-02-03 04:55:00